Tracking 26544 objects as of 9-Dec-2022
HD Live streaming from Space Station
objects crossing your sky now

TELSTAR 11 (ORION 1)

Track TELSTAR 11 (ORION 1) now!
TELSTAR 11 (ORION 1) is classified as:


NORAD ID: 23413
Int'l Code: 1994-079A
Perigee: 36,208.3 km
Apogee: 36,341.4 km
Inclination: 12.6 °
Period: 1,460.7 minutes
Semi major axis: 42645 km
RCS: 10.4526 m2 (large)
Launch date: November 29, 1994
Source: United States (US)
Launch site: AIR FORCE EASTERN TEST RANGE (AFETR)

34 Ku-band; Europe, United States to Rockies, parts of Canada and Mexico; broadcast, business, high-speed Internet.
aabbcc
Your satellite tracking list
Your tracking list is empty




NASA's NSSDC Master Catalog

Two Line Element Set (TLE):
1 23413U 94079A   22342.54081951 -.00000082  00000-0  00000+0 0  9998
2 23413  12.5585  25.4479 0015598 356.4217 176.4690  0.98579795101316
Source of the keplerian elements: AFSPC